sat.trackr.live / text

‹ back to catalog

STARLINK-11091 [DTC]

NORAD 61207 · 2024-171H

PAYLOAD ACTIVE UNKNOWN

§ Identity

Operator
Country
US
Launch date
2024-09-20
Launch site
AFWTR
Launch vehicle
Mass (kg)
RCS (m²)

Purposes: comms

External: N2YO · Heavens-Above · Gunter

§ Orbital elements

Epoch: 2026-09-21T08:50:59.936064Z

Period
91.74 min
Inclination
53.1585°
Eccentricity
0.0001004
Mean motion
15.69705430 rev/d
Perigee alt
359.1 km
Apogee alt
360.4 km
Semi-major
6,737.9 km
B*
2.1322e-6
RAAN
291.5378°
Arg perigee
75.9327°
Mean anomaly
284.1803°
Rev number
11,513

§ Raw data

STARLINK-11091 [DTC]1 61207U 24171H   26264.36874926 -.00000330  00000+0  21322-5 0  99972 61207  53.1585 291.5378 0001004  75.9327 284.1803 15.69705430115135

JSON: /api/v1/satellites/61207 · /tle

For live sub-satellite position, see the globe view (requires WebGL).

§ Visibility from observer

Set your observer location to see the next 7 days of passes ≥ 10°. The values pass through the URL so the page stays shareable.

No JS? Fill the form by hand. The geolocation button needs JavaScript.